Year,Month,Day,Hour,Minute,Value (Times are PST for windgust in km/hr)
2018,08,09,00,00,6.40
2018,08,09,00,01,3.20
2018,08,09,00,02,1.60
2018,08,09,00,03,1.60
2018,08,09,00,04,3.20
2018,08,09,00,05,3.20
2018,08,09,00,06,3.20
2018,08,09,00,07,1.60
2018,08,09,00,09,1.60
2018,08,09,00,10,3.20
2018,08,09,00,11,1.60
2018,08,09,00,12,1.60
2018,08,09,00,13,3.20
2018,08,09,00,14,1.60
2018,08,09,00,25,1.60
2018,08,09,00,26,1.60
2018,08,09,00,30,1.60
2018,08,09,00,40,1.60
2018,08,09,00,44,1.60
2018,08,09,00,47,1.60
2018,08,09,00,48,1.60
2018,08,09,00,49,1.60
2018,08,09,00,50,1.60
2018,08,09,00,51,1.60
2018,08,09,00,53,3.20
2018,08,09,00,54,1.60
2018,08,09,01,00,1.60
2018,08,09,01,07,1.60
2018,08,09,01,09,1.60
2018,08,09,01,10,1.60
2018,08,09,01,12,1.60
2018,08,09,01,13,1.60
2018,08,09,01,41,1.60
2018,08,09,01,49,3.20
2018,08,09,01,50,1.60
2018,08,09,01,56,1.60
2018,08,09,01,57,1.60
2018,08,09,01,58,1.60
2018,08,09,02,01,1.60
2018,08,09,02,02,1.60
2018,08,09,02,37,1.60
2018,08,09,03,05,1.60
2018,08,09,03,47,1.60
2018,08,09,03,48,1.60
2018,08,09,04,06,1.60
2018,08,09,04,09,1.60
2018,08,09,04,11,1.60
2018,08,09,05,04,1.60
2018,08,09,07,00,3.20
2018,08,09,07,01,1.60
2018,08,09,07,02,4.80
2018,08,09,07,03,3.20
2018,08,09,07,07,1.60
2018,08,09,07,08,1.60
2018,08,09,07,09,4.80
2018,08,09,07,10,3.20
2018,08,09,07,11,6.40
2018,08,09,07,12,4.80
2018,08,09,07,13,3.20
2018,08,09,07,14,4.80
2018,08,09,07,15,3.20
2018,08,09,07,16,3.20
2018,08,09,07,17,1.60
2018,08,09,07,18,1.60
2018,08,09,07,19,8.10
2018,08,09,07,20,6.40
2018,08,09,07,21,3.20
2018,08,09,07,22,3.20
2018,08,09,07,23,3.20
2018,08,09,07,24,1.60
2018,08,09,07,25,4.80
2018,08,09,07,26,6.40
2018,08,09,07,27,8.10
2018,08,09,07,28,8.10
2018,08,09,07,29,6.40
2018,08,09,07,30,6.40
2018,08,09,07,31,6.40
2018,08,09,07,32,6.40
2018,08,09,07,33,6.40
2018,08,09,07,34,6.40
2018,08,09,07,35,9.60
2018,08,09,07,36,9.60
2018,08,09,07,37,9.60
2018,08,09,07,38,8.10
2018,08,09,07,39,4.80
2018,08,09,07,40,6.40
2018,08,09,07,41,6.40
2018,08,09,07,42,6.40
2018,08,09,07,43,6.40
2018,08,09,07,44,6.40
2018,08,09,07,45,6.40
2018,08,09,07,46,6.40
2018,08,09,07,47,6.40
2018,08,09,07,48,6.40
2018,08,09,07,49,6.40
2018,08,09,07,50,8.10
2018,08,09,07,51,6.40
2018,08,09,07,52,4.80
2018,08,09,07,53,3.20
2018,08,09,07,54,4.80
2018,08,09,07,55,6.40
2018,08,09,07,56,6.40
2018,08,09,07,57,3.20
2018,08,09,07,58,3.20
2018,08,09,07,59,3.20
2018,08,09,08,00,3.20
2018,08,09,08,01,1.60
2018,08,09,08,02,1.60
2018,08,09,08,03,3.20
2018,08,09,08,04,3.20
2018,08,09,08,05,1.60
2018,08,09,08,06,3.20
2018,08,09,08,07,3.20
2018,08,09,08,08,3.20
2018,08,09,08,09,1.60
2018,08,09,08,10,1.60
2018,08,09,08,11,3.20
2018,08,09,08,12,3.20
2018,08,09,08,13,4.80
2018,08,09,08,14,4.80
2018,08,09,08,15,4.80
2018,08,09,08,16,4.80
2018,08,09,08,17,4.80
2018,08,09,08,18,3.20
2018,08,09,08,19,3.20
2018,08,09,08,20,1.60
2018,08,09,08,21,3.20
2018,08,09,08,22,3.20
2018,08,09,08,23,3.20
2018,08,09,08,24,1.60
2018,08,09,08,25,3.20
2018,08,09,08,26,4.80
2018,08,09,08,27,4.80
2018,08,09,08,28,4.80
2018,08,09,08,29,4.80
2018,08,09,08,30,6.40
2018,08,09,08,31,4.80
2018,08,09,08,32,8.10
2018,08,09,08,33,8.10
2018,08,09,08,34,6.40
2018,08,09,08,35,6.40
2018,08,09,08,36,8.10
2018,08,09,08,37,6.40
2018,08,09,08,38,6.40
2018,08,09,08,39,4.80
2018,08,09,08,40,4.80
2018,08,09,08,41,6.40
2018,08,09,08,42,4.80
2018,08,09,08,43,1.60
2018,08,09,08,44,1.60
2018,08,09,08,45,4.80
2018,08,09,08,46,6.40
2018,08,09,08,47,4.80
2018,08,09,08,48,8.10
2018,08,09,08,49,6.40
2018,08,09,08,50,8.10
2018,08,09,08,51,9.60
2018,08,09,08,52,6.40
2018,08,09,08,53,4.80
2018,08,09,08,54,4.80
2018,08,09,08,55,4.80
2018,08,09,08,56,1.60
2018,08,09,08,57,4.80
2018,08,09,08,58,1.60
2018,08,09,08,59,4.80
2018,08,09,09,00,6.40
2018,08,09,09,01,6.40
2018,08,09,09,02,4.80
2018,08,09,09,03,3.20
2018,08,09,09,04,3.20
2018,08,09,09,05,1.60
2018,08,09,09,06,4.80
2018,08,09,09,07,8.10
2018,08,09,09,08,6.40
2018,08,09,09,09,6.40
2018,08,09,09,10,4.80
2018,08,09,09,11,3.20
2018,08,09,09,12,4.80
2018,08,09,09,13,3.20
2018,08,09,09,14,4.80
2018,08,09,09,15,3.20
2018,08,09,09,16,1.60
2018,08,09,09,17,3.20
2018,08,09,09,18,1.60
2018,08,09,09,19,4.80
2018,08,09,09,20,3.20
2018,08,09,09,21,3.20
2018,08,09,09,22,3.20
2018,08,09,09,23,4.80
2018,08,09,09,24,6.40
2018,08,09,09,25,4.80
2018,08,09,09,26,4.80
2018,08,09,09,27,4.80
2018,08,09,09,28,1.60
2018,08,09,09,29,4.80
2018,08,09,09,30,6.40
2018,08,09,09,31,4.80
2018,08,09,09,32,6.40
2018,08,09,09,33,6.40
2018,08,09,09,34,6.40
2018,08,09,09,35,8.10
2018,08,09,09,36,6.40
2018,08,09,09,37,4.80
2018,08,09,09,38,6.40
2018,08,09,09,39,4.80
2018,08,09,09,40,4.80
2018,08,09,09,41,8.10
2018,08,09,09,42,8.10
2018,08,09,09,43,6.40
2018,08,09,09,44,6.40
2018,08,09,09,45,8.10
2018,08,09,09,46,6.40
2018,08,09,09,47,8.10
2018,08,09,09,48,4.80
2018,08,09,09,49,4.80
2018,08,09,09,50,8.10
2018,08,09,09,51,3.20
2018,08,09,09,52,9.60
2018,08,09,09,53,8.10
2018,08,09,09,54,9.60
2018,08,09,09,55,9.60
2018,08,09,09,56,8.10
2018,08,09,09,57,6.40
2018,08,09,09,58,8.10
2018,08,09,09,59,6.40
2018,08,09,10,00,4.80
2018,08,09,10,01,3.20
2018,08,09,10,02,4.80
2018,08,09,10,03,6.40
2018,08,09,10,04,4.80
2018,08,09,10,05,6.40
2018,08,09,10,06,3.20
2018,08,09,10,07,4.80
2018,08,09,10,08,3.20
2018,08,09,10,09,3.20
2018,08,09,10,10,3.20
2018,08,09,10,11,4.80
2018,08,09,10,12,3.20
2018,08,09,10,13,4.80
2018,08,09,10,14,3.20
2018,08,09,10,15,1.60
2018,08,09,10,16,4.80
2018,08,09,10,17,8.10
2018,08,09,10,18,6.40
2018,08,09,10,19,4.80
2018,08,09,10,20,3.20
2018,08,09,10,21,3.20
2018,08,09,10,22,4.80
2018,08,09,10,23,6.40
2018,08,09,10,24,8.10
2018,08,09,10,25,4.80
2018,08,09,10,26,3.20
2018,08,09,10,27,4.80
2018,08,09,10,28,4.80
2018,08,09,10,29,8.10
2018,08,09,10,30,6.40
2018,08,09,10,31,8.10
2018,08,09,10,32,9.60
2018,08,09,10,33,9.60
2018,08,09,10,34,9.60
2018,08,09,10,35,9.60
2018,08,09,10,36,8.10
2018,08,09,10,37,6.40
2018,08,09,10,38,3.20
2018,08,09,10,39,6.40
2018,08,09,10,40,8.10
2018,08,09,10,41,6.40
2018,08,09,10,42,3.20
2018,08,09,10,43,4.80
2018,08,09,10,44,4.80
2018,08,09,10,45,6.40
2018,08,09,10,46,6.40
2018,08,09,10,47,8.10
2018,08,09,10,48,6.40
2018,08,09,10,49,6.40
2018,08,09,10,50,6.40
2018,08,09,10,51,4.80
2018,08,09,10,52,6.40
2018,08,09,10,53,11.30
2018,08,09,10,54,11.30
2018,08,09,10,55,6.40
2018,08,09,10,56,4.80
2018,08,09,10,57,6.40
2018,08,09,10,58,4.80
2018,08,09,10,59,6.40
2018,08,09,11,00,4.80
2018,08,09,11,01,6.40
2018,08,09,11,02,6.40
2018,08,09,11,03,8.10
2018,08,09,11,04,4.80
2018,08,09,11,05,6.40
2018,08,09,11,06,4.80
2018,08,09,11,07,6.40
2018,08,09,11,08,4.80
2018,08,09,11,09,4.80
2018,08,09,11,10,4.80
2018,08,09,11,11,4.80
2018,08,09,11,12,8.10
2018,08,09,11,13,6.40
2018,08,09,11,14,8.10
2018,08,09,11,15,4.80
2018,08,09,11,16,4.80
2018,08,09,11,17,4.80
2018,08,09,11,18,9.60
2018,08,09,11,19,6.40
2018,08,09,11,20,9.60
2018,08,09,11,21,11.30
2018,08,09,11,22,9.60
2018,08,09,11,23,11.30
2018,08,09,11,24,9.60
2018,08,09,11,25,11.30
2018,08,09,11,26,11.30
2018,08,09,11,27,11.30
2018,08,09,11,28,9.60
2018,08,09,11,29,12.90
2018,08,09,11,30,11.30
2018,08,09,11,31,9.60
2018,08,09,11,32,11.30
2018,08,09,11,33,12.90
2018,08,09,11,34,9.60
2018,08,09,11,35,6.40
2018,08,09,11,36,4.80
2018,08,09,11,37,9.60
2018,08,09,11,38,9.60
2018,08,09,11,39,11.30
2018,08,09,11,40,11.30
2018,08,09,11,41,11.30
2018,08,09,11,42,9.60
2018,08,09,11,43,9.60
2018,08,09,11,44,11.30
2018,08,09,11,45,9.60
2018,08,09,11,46,11.30
2018,08,09,11,47,9.60
2018,08,09,11,48,8.10
2018,08,09,11,49,4.80
2018,08,09,11,50,8.10
2018,08,09,11,51,9.60
2018,08,09,11,52,11.30
2018,08,09,11,53,9.60
2018,08,09,11,54,9.60
2018,08,09,11,55,8.10
2018,08,09,11,56,8.10
2018,08,09,11,57,9.60
2018,08,09,11,58,9.60
2018,08,09,11,59,9.60
2018,08,09,12,00,8.10
2018,08,09,12,01,4.80
2018,08,09,12,02,8.10
2018,08,09,12,03,8.10
2018,08,09,12,04,6.40
2018,08,09,12,05,8.10
2018,08,09,12,06,9.60
2018,08,09,12,07,8.10
2018,08,09,12,08,9.60
2018,08,09,12,09,9.60
2018,08,09,12,10,9.60
2018,08,09,12,11,9.60
2018,08,09,12,12,9.60
2018,08,09,12,13,9.60
2018,08,09,12,14,9.60
2018,08,09,12,15,9.60
2018,08,09,12,16,6.40
2018,08,09,12,17,8.10
2018,08,09,12,18,8.10
2018,08,09,12,19,9.60
2018,08,09,12,20,9.60
2018,08,09,12,21,9.60
2018,08,09,12,22,9.60
2018,08,09,12,23,11.30
2018,08,09,12,24,11.30
2018,08,09,12,25,11.30
2018,08,09,12,26,8.10
2018,08,09,12,27,9.60
2018,08,09,12,28,9.60
2018,08,09,12,29,9.60
2018,08,09,12,30,9.60
2018,08,09,12,31,6.40
2018,08,09,12,32,11.30
2018,08,09,12,33,9.60
2018,08,09,12,34,14.50
2018,08,09,12,35,8.10
2018,08,09,12,36,6.40
2018,08,09,12,37,9.60
2018,08,09,12,38,8.10
2018,08,09,12,39,6.40
2018,08,09,12,40,8.10
2018,08,09,12,41,6.40
2018,08,09,12,42,6.40
2018,08,09,12,43,16.10
2018,08,09,12,44,16.10
2018,08,09,12,45,14.50
2018,08,09,12,46,16.10
2018,08,09,12,47,17.70
2018,08,09,12,48,16.10
2018,08,09,12,49,16.10
2018,08,09,12,50,16.10
2018,08,09,12,51,11.30
2018,08,09,12,52,16.10
2018,08,09,12,53,16.10
2018,08,09,12,54,16.10
2018,08,09,12,55,17.70
2018,08,09,12,56,16.10
2018,08,09,12,57,17.70
2018,08,09,12,58,17.70
2018,08,09,12,59,17.70
2018,08,09,13,00,14.50
2018,08,09,13,01,11.30
2018,08,09,13,02,11.30
2018,08,09,13,03,14.50
2018,08,09,13,04,12.90
2018,08,09,13,05,6.40
2018,08,09,13,06,6.40
2018,08,09,13,07,3.20
2018,08,09,13,08,9.60
2018,08,09,13,09,9.60
2018,08,09,13,10,12.90
2018,08,09,13,11,8.10
2018,08,09,13,12,8.10
2018,08,09,13,13,8.10
2018,08,09,13,14,9.60
2018,08,09,13,15,8.10
2018,08,09,13,16,9.60
2018,08,09,13,17,11.30
2018,08,09,13,18,11.30
2018,08,09,13,19,9.60
2018,08,09,13,20,9.60
2018,08,09,13,21,6.40
2018,08,09,13,22,3.20
2018,08,09,13,23,3.20
2018,08,09,13,24,4.80
2018,08,09,13,25,6.40
2018,08,09,13,26,9.60
2018,08,09,13,27,9.60
2018,08,09,13,28,14.50
2018,08,09,13,29,14.50
2018,08,09,13,30,14.50
2018,08,09,13,31,9.60
2018,08,09,13,32,11.30
2018,08,09,13,33,8.10
2018,08,09,13,34,8.10
2018,08,09,13,35,11.30
2018,08,09,13,36,9.60
2018,08,09,13,37,8.10
2018,08,09,13,38,9.60
2018,08,09,13,39,9.60
2018,08,09,13,40,9.60
2018,08,09,13,41,6.40
2018,08,09,13,42,8.10
2018,08,09,13,43,11.30
2018,08,09,13,44,9.60
2018,08,09,13,45,11.30
2018,08,09,13,46,9.60
2018,08,09,13,47,9.60
2018,08,09,13,48,8.10
2018,08,09,13,49,8.10
2018,08,09,13,50,8.10
2018,08,09,13,51,4.80
2018,08,09,13,52,4.80
2018,08,09,13,53,9.60
2018,08,09,13,54,9.60
2018,08,09,13,55,4.80
2018,08,09,13,56,6.40
2018,08,09,13,57,9.60
2018,08,09,13,58,9.60
2018,08,09,13,59,8.10
2018,08,09,14,00,8.10
2018,08,09,14,01,8.10
2018,08,09,14,02,14.50
2018,08,09,14,03,14.50
2018,08,09,14,04,11.30
2018,08,09,14,05,9.60
2018,08,09,14,06,11.30
2018,08,09,14,07,12.90
2018,08,09,14,08,11.30
2018,08,09,14,09,11.30
2018,08,09,14,10,11.30
2018,08,09,14,11,19.30
2018,08,09,14,12,17.70
2018,08,09,14,13,16.10
2018,08,09,14,14,20.90
2018,08,09,14,15,11.30
2018,08,09,14,16,8.10
2018,08,09,14,17,14.50
2018,08,09,14,18,16.10
2018,08,09,14,19,16.10
2018,08,09,14,20,12.90
2018,08,09,14,21,20.90
2018,08,09,14,22,16.10
2018,08,09,14,23,16.10
2018,08,09,14,24,11.30
2018,08,09,14,25,17.70
2018,08,09,14,26,11.30
2018,08,09,14,27,16.10
2018,08,09,14,28,14.50
2018,08,09,14,29,16.10
2018,08,09,14,30,19.30
2018,08,09,14,31,19.30
2018,08,09,14,32,17.70
2018,08,09,14,33,16.10
2018,08,09,14,34,16.10
2018,08,09,14,35,16.10
2018,08,09,14,36,12.90
2018,08,09,14,37,19.30
2018,08,09,14,38,17.70
2018,08,09,14,39,16.10
2018,08,09,14,40,19.30
2018,08,09,14,41,19.30
2018,08,09,14,42,20.90
2018,08,09,14,43,11.30
2018,08,09,14,44,14.50
2018,08,09,14,45,12.90
2018,08,09,14,46,16.10
2018,08,09,14,47,16.10
2018,08,09,14,48,11.30
2018,08,09,14,49,8.10
2018,08,09,14,50,6.40
2018,08,09,14,51,6.40
2018,08,09,14,52,4.80
2018,08,09,14,53,3.20
2018,08,09,14,54,3.20
2018,08,09,14,55,6.40
2018,08,09,14,56,6.40
2018,08,09,14,57,11.30
2018,08,09,14,58,9.60
2018,08,09,14,59,6.40
2018,08,09,15,00,9.60
2018,08,09,15,01,14.50
2018,08,09,15,02,9.60
2018,08,09,15,03,8.10
2018,08,09,15,04,11.30
2018,08,09,15,05,11.30
2018,08,09,15,06,9.60
2018,08,09,15,07,14.50
2018,08,09,15,08,11.30
2018,08,09,15,09,6.40
2018,08,09,15,10,8.10
2018,08,09,15,11,6.40
2018,08,09,15,12,9.60
2018,08,09,15,13,9.60
2018,08,09,15,14,9.60
2018,08,09,15,15,6.40
2018,08,09,15,16,4.80
2018,08,09,15,17,9.60
2018,08,09,15,18,11.30
2018,08,09,15,19,8.10
2018,08,09,15,20,8.10
2018,08,09,15,21,11.30
2018,08,09,15,22,11.30
2018,08,09,15,23,9.60
2018,08,09,15,24,6.40
2018,08,09,15,25,4.80
2018,08,09,15,26,6.40
2018,08,09,15,27,6.40
2018,08,09,15,28,4.80
2018,08,09,15,29,9.60
2018,08,09,15,30,8.10
2018,08,09,15,31,9.60
2018,08,09,15,32,6.40
2018,08,09,15,33,6.40
2018,08,09,15,34,4.80
2018,08,09,15,35,8.10
2018,08,09,15,36,9.60
2018,08,09,15,37,4.80
2018,08,09,15,38,6.40
2018,08,09,15,39,4.80
2018,08,09,15,40,4.80
2018,08,09,15,41,6.40
2018,08,09,15,42,8.10
2018,08,09,15,43,6.40
2018,08,09,15,44,6.40
2018,08,09,15,45,6.40
2018,08,09,15,46,8.10
2018,08,09,15,47,6.40
2018,08,09,15,48,6.40
2018,08,09,15,49,8.10
2018,08,09,15,50,8.10
2018,08,09,15,51,9.60
2018,08,09,15,52,4.80
2018,08,09,15,53,4.80
2018,08,09,15,54,6.40
2018,08,09,15,55,6.40
2018,08,09,15,56,4.80
2018,08,09,15,57,6.40
2018,08,09,15,58,11.30
2018,08,09,15,59,6.40
2018,08,09,16,00,9.60
2018,08,09,16,01,8.10
2018,08,09,16,02,8.10
2018,08,09,16,03,8.10
2018,08,09,16,04,6.40
2018,08,09,16,05,8.10
2018,08,09,16,06,6.40
2018,08,09,16,07,8.10
2018,08,09,16,08,8.10
2018,08,09,16,09,6.40
2018,08,09,16,10,4.80
2018,08,09,16,11,4.80
2018,08,09,16,12,4.80
2018,08,09,16,13,9.60
2018,08,09,16,14,9.60
2018,08,09,16,15,6.40
2018,08,09,16,16,4.80
2018,08,09,16,17,4.80
2018,08,09,16,18,8.10
2018,08,09,16,19,6.40
2018,08,09,16,20,6.40
2018,08,09,16,21,4.80
2018,08,09,16,22,4.80
2018,08,09,16,23,4.80
2018,08,09,16,24,4.80
2018,08,09,16,25,4.80
2018,08,09,16,26,3.20
2018,08,09,16,27,4.80
2018,08,09,16,28,4.80
2018,08,09,16,29,3.20
2018,08,09,16,30,4.80
2018,08,09,16,31,8.10
2018,08,09,16,32,11.30
2018,08,09,16,33,14.50
2018,08,09,16,34,11.30
2018,08,09,16,35,9.60
2018,08,09,16,36,4.80
2018,08,09,16,37,4.80
2018,08,09,16,38,6.40
2018,08,09,16,39,4.80
2018,08,09,16,40,4.80
2018,08,09,16,41,3.20
2018,08,09,16,42,4.80
2018,08,09,16,43,4.80
2018,08,09,16,44,3.20
2018,08,09,16,45,4.80
2018,08,09,16,46,4.80
2018,08,09,16,47,4.80
2018,08,09,16,48,4.80
2018,08,09,16,49,4.80
2018,08,09,16,50,4.80
2018,08,09,16,51,4.80
2018,08,09,16,52,4.80
2018,08,09,16,53,4.80
2018,08,09,16,54,3.20
2018,08,09,16,55,3.20
2018,08,09,16,56,4.80
2018,08,09,16,57,4.80
2018,08,09,16,58,3.20
2018,08,09,16,59,4.80
2018,08,09,17,00,3.20
2018,08,09,17,01,3.20
2018,08,09,17,02,4.80
2018,08,09,17,03,1.60
2018,08,09,17,04,3.20
2018,08,09,17,05,6.40
2018,08,09,17,06,4.80
2018,08,09,17,07,6.40
2018,08,09,17,08,4.80
2018,08,09,17,09,4.80
2018,08,09,17,10,6.40
2018,08,09,17,11,6.40
2018,08,09,17,12,6.40
2018,08,09,17,13,4.80
2018,08,09,17,14,6.40
2018,08,09,17,15,4.80
2018,08,09,17,16,6.40
2018,08,09,17,17,8.10
2018,08,09,17,18,4.80
2018,08,09,17,19,11.30
2018,08,09,17,20,8.10
2018,08,09,17,21,6.40
2018,08,09,17,22,6.40
2018,08,09,17,23,6.40
2018,08,09,17,24,8.10
2018,08,09,17,25,6.40
2018,08,09,17,26,8.10
2018,08,09,17,27,6.40
2018,08,09,17,28,6.40
2018,08,09,17,29,6.40
2018,08,09,17,30,8.10
2018,08,09,17,31,8.10
2018,08,09,17,32,8.10
2018,08,09,17,33,8.10
2018,08,09,17,34,8.10
2018,08,09,17,35,8.10
2018,08,09,17,36,8.10
2018,08,09,17,37,8.10
2018,08,09,17,38,8.10
2018,08,09,17,39,9.60
2018,08,09,17,40,6.40
2018,08,09,17,41,8.10
2018,08,09,17,42,9.60
2018,08,09,17,43,8.10
2018,08,09,17,44,9.60
2018,08,09,17,45,6.40
2018,08,09,17,46,8.10
2018,08,09,17,47,9.60
2018,08,09,17,48,8.10
2018,08,09,17,49,6.40
2018,08,09,17,50,6.40
2018,08,09,17,51,6.40
2018,08,09,17,52,4.80
2018,08,09,17,53,4.80
2018,08,09,17,54,4.80
2018,08,09,17,55,6.40
2018,08,09,17,56,6.40
2018,08,09,17,57,6.40
2018,08,09,17,58,6.40
2018,08,09,17,59,6.40
2018,08,09,18,00,3.20
2018,08,09,18,01,3.20
2018,08,09,18,02,6.40
2018,08,09,18,03,8.10
2018,08,09,18,04,4.80
2018,08,09,18,05,6.40
2018,08,09,18,06,8.10
2018,08,09,18,07,6.40
2018,08,09,18,08,8.10
2018,08,09,18,09,6.40
2018,08,09,18,10,8.10
2018,08,09,18,11,8.10
2018,08,09,18,12,6.40
2018,08,09,18,13,6.40
2018,08,09,18,14,4.80
2018,08,09,18,15,4.80
2018,08,09,18,16,4.80
2018,08,09,18,17,6.40
2018,08,09,18,18,4.80
2018,08,09,18,19,6.40
2018,08,09,18,20,6.40
2018,08,09,18,21,4.80
2018,08,09,18,22,4.80
2018,08,09,18,23,6.40
2018,08,09,18,24,4.80
2018,08,09,18,25,8.10
2018,08,09,18,26,6.40
2018,08,09,18,27,3.20
2018,08,09,18,28,4.80
2018,08,09,18,29,4.80
2018,08,09,18,30,4.80
2018,08,09,18,31,4.80
2018,08,09,18,32,3.20
2018,08,09,18,33,4.80
2018,08,09,18,34,4.80
2018,08,09,18,35,4.80
2018,08,09,18,36,4.80
2018,08,09,18,37,4.80
2018,08,09,18,38,6.40
2018,08,09,18,39,6.40
2018,08,09,18,40,6.40
2018,08,09,18,41,4.80
2018,08,09,18,42,6.40
2018,08,09,18,43,3.20
2018,08,09,18,44,1.60
2018,08,09,18,45,4.80
2018,08,09,18,46,6.40
2018,08,09,18,47,1.60
2018,08,09,18,48,3.20
2018,08,09,18,49,3.20
2018,08,09,18,50,4.80
2018,08,09,18,51,4.80
2018,08,09,18,52,3.20
2018,08,09,18,53,1.60
2018,08,09,18,54,4.80
2018,08,09,18,55,4.80
2018,08,09,18,56,1.60
2018,08,09,18,57,1.60
2018,08,09,18,58,1.60
2018,08,09,18,59,4.80
2018,08,09,19,00,3.20
2018,08,09,19,01,3.20
2018,08,09,19,02,3.20
2018,08,09,19,03,1.60
2018,08,09,19,04,3.20
2018,08,09,19,05,4.80
2018,08,09,19,06,6.40
2018,08,09,19,07,4.80
2018,08,09,19,08,3.20
2018,08,09,19,09,3.20
2018,08,09,19,10,3.20
2018,08,09,19,11,3.20
2018,08,09,19,12,4.80
2018,08,09,19,13,4.80
2018,08,09,19,14,1.60
2018,08,09,19,15,4.80
2018,08,09,19,16,3.20
2018,08,09,19,17,4.80
2018,08,09,19,18,4.80
2018,08,09,19,19,3.20
2018,08,09,19,20,6.40
2018,08,09,19,21,4.80
2018,08,09,19,22,4.80
2018,08,09,19,23,4.80
2018,08,09,19,24,3.20
2018,08,09,19,25,4.80
2018,08,09,19,26,4.80
2018,08,09,19,27,3.20
2018,08,09,19,28,1.60
2018,08,09,19,29,6.40
2018,08,09,19,30,4.80
2018,08,09,19,31,4.80
2018,08,09,19,32,6.40
2018,08,09,19,33,6.40
2018,08,09,19,34,8.10
2018,08,09,19,35,6.40
2018,08,09,19,36,4.80
2018,08,09,19,37,3.20
2018,08,09,19,38,3.20
2018,08,09,19,39,1.60
2018,08,09,19,40,3.20
2018,08,09,19,41,1.60
2018,08,09,19,42,1.60
2018,08,09,19,43,1.60
2018,08,09,19,44,3.20
2018,08,09,19,45,3.20
2018,08,09,19,46,3.20
2018,08,09,19,47,3.20
2018,08,09,19,48,3.20
2018,08,09,19,49,3.20
2018,08,09,19,50,3.20
2018,08,09,19,51,3.20
2018,08,09,19,52,3.20
2018,08,09,19,53,3.20
2018,08,09,19,54,1.60
2018,08,09,19,55,1.60
2018,08,09,19,57,1.60
2018,08,09,19,58,1.60
2018,08,09,20,00,1.60
2018,08,09,20,01,1.60
2018,08,09,20,02,1.60
2018,08,09,20,04,1.60
2018,08,09,20,05,1.60
2018,08,09,20,06,1.60
2018,08,09,20,07,1.60
2018,08,09,20,08,1.60
2018,08,09,20,09,1.60
2018,08,09,20,10,1.60
2018,08,09,20,11,1.60
2018,08,09,20,12,1.60
2018,08,09,20,13,3.20
2018,08,09,20,14,3.20
2018,08,09,20,15,1.60
2018,08,09,20,16,1.60
2018,08,09,20,25,1.60
2018,08,09,20,26,1.60
2018,08,09,20,27,1.60
2018,08,09,20,55,1.60
2018,08,09,20,56,1.60
2018,08,09,20,57,1.60
2018,08,09,21,02,1.60
2018,08,09,21,04,1.60
2018,08,09,21,09,1.60
2018,08,09,21,10,1.60
2018,08,09,21,11,1.60
2018,08,09,21,15,1.60
2018,08,09,21,20,3.20
2018,08,09,21,23,1.60
2018,08,09,21,43,1.60
2018,08,09,21,44,1.60
2018,08,09,22,05,1.60
2018,08,09,22,06,1.60
2018,08,09,22,07,1.60
2018,08,09,22,08,3.20
2018,08,09,22,09,1.60
2018,08,09,22,10,3.20
2018,08,09,22,11,3.20
2018,08,09,22,12,4.80
2018,08,09,22,13,4.80
2018,08,09,22,14,3.20
2018,08,09,22,15,4.80
2018,08,09,22,16,4.80
2018,08,09,22,17,1.60
2018,08,09,22,22,1.60
2018,08,09,22,23,1.60
2018,08,09,22,38,1.60
2018,08,09,22,39,3.20
2018,08,09,22,40,1.60
2018,08,09,23,07,1.60
2018,08,09,23,18,1.60
2018,08,09,23,19,1.60
2018,08,09,23,20,1.60
2018,08,09,23,22,1.60
2018,08,09,23,24,1.60
2018,08,09,23,25,1.60
2018,08,09,23,26,1.60
2018,08,09,23,27,1.60
2018,08,09,23,28,1.60
2018,08,09,23,30,1.60
2018,08,09,23,32,1.60
2018,08,09,23,35,1.60
2018,08,09,23,36,1.60
2018,08,09,23,37,1.60
2018,08,09,23,39,1.60
2018,08,09,23,40,3.20
2018,08,09,23,42,1.60
2018,08,09,23,43,1.60
2018,08,09,23,45,1.60
2018,08,09,23,46,1.60
2018,08,09,23,47,1.60
2018,08,09,23,50,1.60
2018,08,09,23,52,1.60
2018,08,09,23,54,1.60
2018,08,09,23,55,1.60
2018,08,09,23,56,1.60
2018,08,09,23,58,1.60
2018,08,09,23,59,1.60
